Year,Month,Day,Hour,Minute,Value (Times are PST for barometer in hPa)
2021,08,24,00,00,906.33
2021,08,24,00,01,906.33
2021,08,24,00,02,906.33
2021,08,24,00,03,906.33
2021,08,24,00,04,906.33
2021,08,24,00,05,906.33
2021,08,24,00,06,913.25
2021,08,24,00,07,919.47
2021,08,24,00,08,919.47
2021,08,24,00,09,919.47
2021,08,24,00,10,919.47
2021,08,24,00,11,919.47
2021,08,24,00,12,919.47
2021,08,24,00,13,919.47
2021,08,24,00,14,919.47
2021,08,24,00,15,919.47
2021,08,24,00,16,919.47
2021,08,24,00,17,919.47
2021,08,24,00,18,919.47
2021,08,24,00,19,919.47
2021,08,24,00,20,919.47
2021,08,24,00,21,919.47
2021,08,24,00,22,919.47
2021,08,24,00,23,919.47
2021,08,24,00,24,919.47
2021,08,24,00,25,919.47
2021,08,24,00,26,919.47
2021,08,24,00,27,919.47
2021,08,24,00,28,919.47
2021,08,24,00,29,919.47
2021,08,24,00,30,919.47
2021,08,24,00,31,919.47
2021,08,24,00,32,919.47
2021,08,24,00,33,919.47
2021,08,24,00,34,919.47
2021,08,24,00,35,919.47
2021,08,24,00,36,919.47
2021,08,24,00,37,919.47
2021,08,24,00,38,936.25
2021,08,24,00,39,949.98
2021,08,24,00,40,949.98
2021,08,24,00,41,949.98
2021,08,24,00,42,949.98
2021,08,24,00,43,949.98
2021,08,24,00,44,949.98
2021,08,24,00,45,949.98
2021,08,24,00,46,949.98
2021,08,24,00,47,949.98
2021,08,24,00,48,949.98
2021,08,24,00,49,949.98
2021,08,24,00,50,949.98
2021,08,24,00,51,949.98
2021,08,24,00,52,949.98
2021,08,24,00,53,949.98
2021,08,24,00,54,949.98
2021,08,24,00,55,949.98
2021,08,24,00,56,949.98
2021,08,24,00,57,949.98
2021,08,24,00,58,949.98
2021,08,24,00,59,949.98
2021,08,24,01,00,949.98
2021,08,24,01,01,949.98
2021,08,24,01,02,949.98
2021,08,24,01,03,949.98
2021,08,24,01,04,949.98
2021,08,24,01,05,949.98
2021,08,24,01,06,949.98
2021,08,24,01,07,949.98
2021,08,24,01,08,949.98
2021,08,24,01,09,949.98
2021,08,24,01,10,949.98
2021,08,24,01,11,949.98
2021,08,24,01,12,949.98
2021,08,24,01,13,949.98
2021,08,24,01,14,949.98
2021,08,24,01,15,949.98
2021,08,24,01,16,949.98
2021,08,24,01,17,949.98
2021,08,24,01,18,964.99
2021,08,24,01,19,978.50
2021,08,24,01,20,978.50
2021,08,24,01,21,978.50
2021,08,24,01,22,978.50
2021,08,24,01,23,978.50
2021,08,24,01,24,978.50
2021,08,24,01,25,978.50
2021,08,24,01,26,978.50
2021,08,24,01,27,978.50
2021,08,24,01,28,978.50
2021,08,24,01,29,978.50
2021,08,24,01,30,978.50
2021,08,24,01,31,978.50
2021,08,24,01,32,978.50
2021,08,24,01,33,978.50
2021,08,24,01,34,978.50
2021,08,24,01,35,978.50
2021,08,24,01,36,978.50
2021,08,24,01,37,978.50
2021,08,24,01,38,978.50
2021,08,24,01,39,978.50
2021,08,24,01,40,978.50
2021,08,24,01,41,978.50
2021,08,24,01,42,978.50
2021,08,24,01,43,978.50
2021,08,24,01,44,978.50
2021,08,24,01,45,978.50
2021,08,24,01,46,978.50
2021,08,24,01,47,978.50
2021,08,24,01,48,978.50
2021,08,24,01,49,978.50
2021,08,24,01,50,978.50
2021,08,24,01,51,978.50
2021,08,24,01,52,978.50
2021,08,24,01,53,978.50
2021,08,24,01,54,978.50
2021,08,24,01,55,978.50
2021,08,24,01,56,978.50
2021,08,24,01,57,978.50
2021,08,24,01,58,978.50
2021,08,24,01,59,978.50
2021,08,24,02,00,978.50
2021,08,24,02,01,978.50
2021,08,24,02,02,978.50
2021,08,24,02,03,978.50
2021,08,24,02,04,978.50
2021,08,24,02,05,978.50
2021,08,24,02,06,978.50
2021,08,24,02,07,984.30
2021,08,24,02,08,990.11
2021,08,24,02,09,990.11
2021,08,24,02,10,990.11
2021,08,24,02,11,990.11
2021,08,24,02,12,990.11
2021,08,24,02,13,990.11
2021,08,24,02,14,990.11
2021,08,24,02,15,990.11
2021,08,24,02,16,990.11
2021,08,24,02,17,990.11
2021,08,24,02,18,990.11
2021,08,24,02,19,990.11
2021,08,24,02,20,990.11
2021,08,24,02,21,990.11
2021,08,24,02,22,990.11
2021,08,24,02,23,990.11
2021,08,24,02,24,990.11
2021,08,24,02,25,990.11
2021,08,24,02,26,985.58
2021,08,24,02,27,981.51
2021,08,24,02,28,982.21
2021,08,24,02,29,982.90
2021,08,24,02,30,982.90
2021,08,24,02,31,982.90
2021,08,24,02,32,985.52
2021,08,24,02,33,987.88
2021,08,24,02,34,987.88
2021,08,24,02,35,987.88
2021,08,24,02,36,987.88
2021,08,24,02,37,987.88
2021,08,24,02,38,987.88
2021,08,24,02,39,986.80
2021,08,24,02,40,985.82
2021,08,24,02,41,985.74
2021,08,24,02,42,985.74
2021,08,24,02,43,985.74
2021,08,24,02,44,984.47
2021,08,24,02,45,983.20
2021,08,24,02,46,983.20
2021,08,24,02,47,983.20
2021,08,24,02,48,983.06
2021,08,24,02,49,982.93
2021,08,24,02,50,979.24
2021,08,24,02,51,975.55
2021,08,24,02,52,975.55
2021,08,24,02,53,975.55
2021,08,24,02,54,975.55
2021,08,24,02,55,975.55
2021,08,24,02,56,975.55
2021,08,24,02,57,975.55
2021,08,24,02,58,975.55
2021,08,24,02,59,975.55
2021,08,24,03,00,975.55
2021,08,24,03,01,972.11
2021,08,24,03,02,968.68
2021,08,24,03,03,968.68
2021,08,24,03,06,968.68
2021,08,24,03,07,968.68
2021,08,24,03,08,968.68
2021,08,24,03,09,968.68
2021,08,24,03,10,968.68
2021,08,24,03,11,968.68
2021,08,24,03,12,968.68
2021,08,24,03,13,968.68
2021,08,24,03,14,966.24
2021,08,24,03,15,965.12
2021,08,24,03,16,966.58
2021,08,24,03,17,967.25
2021,08,24,03,18,967.25
2021,08,24,03,19,969.01
2021,08,24,03,20,969.76
2021,08,24,03,21,969.76
2021,08,24,03,22,969.76
2021,08,24,03,23,969.76
2021,08,24,03,24,969.76
2021,08,24,03,25,969.76
2021,08,24,03,26,969.76
2021,08,24,03,27,969.76
2021,08,24,03,28,974.36
2021,08,24,03,29,976.33
2021,08,24,03,30,976.33
2021,08,24,03,31,976.33
2021,08,24,03,32,976.33
2021,08,24,03,33,976.33
2021,08,24,03,34,976.33
2021,08,24,03,35,976.33
2021,08,24,03,36,976.33
2021,08,24,03,37,976.33
2021,08,24,03,38,976.33
2021,08,24,03,39,976.33
2021,08,24,03,40,976.33
2021,08,24,03,41,976.33
2021,08,24,03,42,976.33
2021,08,24,03,43,976.33
2021,08,24,03,44,977.33
2021,08,24,03,45,977.79
2021,08,24,03,46,977.79
2021,08,24,03,47,977.79
2021,08,24,03,48,977.79
2021,08,24,03,49,977.79
2021,08,24,03,50,977.79
2021,08,24,03,51,977.79
2021,08,24,03,52,977.79
2021,08,24,03,53,977.79
2021,08,24,03,54,977.79
2021,08,24,03,55,977.79
2021,08,24,03,56,977.79
2021,08,24,03,57,977.79
2021,08,24,03,58,977.79
2021,08,24,03,59,977.79
2021,08,24,04,00,981.54
2021,08,24,04,01,983.27
2021,08,24,04,02,983.27
2021,08,24,04,03,983.27
2021,08,24,04,04,983.25
2021,08,24,04,05,983.24
2021,08,24,04,06,983.24
2021,08,24,04,07,983.24
2021,08,24,04,08,980.70
2021,08,24,04,09,979.61
2021,08,24,04,10,979.61
2021,08,24,04,11,979.61
2021,08,24,04,12,979.61
2021,08,24,04,13,979.61
2021,08,24,04,14,982.34
2021,08,24,04,15,983.51
2021,08,24,04,16,985.43
2021,08,24,04,17,986.25
2021,08,24,04,18,986.25
2021,08,24,04,19,986.25
2021,08,24,04,20,986.25
2021,08,24,04,21,986.25
2021,08,24,04,22,986.16
2021,08,24,04,23,986.12
2021,08,24,04,24,986.12
2021,08,24,04,25,986.12
2021,08,24,04,26,986.12
2021,08,24,04,27,988.97
2021,08,24,04,28,990.28
2021,08,24,04,29,990.28
2021,08,24,04,30,989.73
2021,08,24,04,31,989.47
2021,08,24,04,32,989.47
2021,08,24,04,33,989.47
2021,08,24,04,34,989.47
2021,08,24,04,35,989.47
2021,08,24,04,36,989.47
2021,08,24,04,37,990.70
2021,08,24,04,38,991.08
2021,08,24,04,39,990.99
2021,08,24,04,40,990.99
2021,08,24,04,41,990.99
2021,08,24,04,42,990.99
2021,08,24,04,43,990.99
2021,08,24,04,44,990.99
2021,08,24,04,45,994.40
2021,08,24,04,46,995.97
2021,08,24,04,47,995.97
2021,08,24,04,48,995.97
2021,08,24,04,49,995.97
2021,08,24,04,50,995.97
2021,08,24,04,51,993.91
2021,08,24,04,52,993.03
2021,08,24,04,53,993.06
2021,08,24,04,54,993.06
2021,08,24,04,55,993.06
2021,08,24,04,56,993.06
2021,08,24,04,57,993.06
2021,08,24,04,58,993.06
2021,08,24,04,59,993.06
2021,08,24,05,00,995.19
2021,08,24,05,01,996.61
2021,08,24,05,02,996.61
2021,08,24,05,03,996.61
2021,08,24,05,04,996.61
2021,08,24,05,05,996.61
2021,08,24,05,06,996.61
2021,08,24,05,07,994.99
2021,08,24,05,08,994.24
2021,08,24,05,09,994.53
2021,08,24,05,10,995.14
2021,08,24,05,11,995.33
2021,08,24,05,12,995.33
2021,08,24,05,13,995.33
2021,08,24,05,14,995.33
2021,08,24,05,15,995.33
2021,08,24,05,16,995.33
2021,08,24,05,17,995.33
2021,08,24,05,18,995.33
2021,08,24,05,19,995.33
2021,08,24,05,20,995.33
2021,08,24,05,21,995.33
2021,08,24,05,22,995.33
2021,08,24,05,23,994.67
2021,08,24,05,24,994.62
2021,08,24,05,25,994.79
2021,08,24,05,26,994.79
2021,08,24,05,27,994.37
2021,08,24,05,28,994.18
2021,08,24,05,29,995.36
2021,08,24,05,30,995.90
2021,08,24,05,31,995.90
2021,08,24,05,32,995.90
2021,08,24,05,33,995.90
2021,08,24,05,34,995.90
2021,08,24,05,35,995.90
2021,08,24,05,36,995.90
2021,08,24,05,37,995.82
2021,08,24,05,38,996.02
2021,08,24,05,39,996.14
2021,08,24,05,40,996.14
2021,08,24,05,41,996.93
2021,08,24,05,42,997.24
2021,08,24,05,43,997.22
2021,08,24,05,44,998.92
2021,08,24,05,45,999.70
2021,08,24,05,46,999.91
2021,08,24,05,47,1000.00
2021,08,24,05,48,1000.00
2021,08,24,05,49,1000.00
2021,08,24,05,50,1000.00
2021,08,24,05,51,1000.00
2021,08,24,05,52,997.09
2021,08,24,05,53,995.75
2021,08,24,05,54,995.87
2021,08,24,05,55,995.87
2021,08,24,05,56,995.87
2021,08,24,05,57,995.87
2021,08,24,05,58,995.87
2021,08,24,05,59,995.36
2021,08,24,06,00,995.12
2021,08,24,06,01,995.98
2021,08,24,06,02,996.45
2021,08,24,06,03,997.66
2021,08,24,06,04,998.31
2021,08,24,06,05,996.85
2021,08,24,06,06,996.07
2021,08,24,06,07,996.07
2021,08,24,06,08,996.07
2021,08,24,06,09,996.07
2021,08,24,06,10,996.07
2021,08,24,06,11,996.07
2021,08,24,06,12,996.07
2021,08,24,06,13,996.07
2021,08,24,06,14,996.07
2021,08,24,06,15,996.07
2021,08,24,06,16,996.07
2021,08,24,06,17,996.07
2021,08,24,06,18,996.07
2021,08,24,06,19,996.07
2021,08,24,06,20,996.84
2021,08,24,06,21,997.00
2021,08,24,06,22,996.85
2021,08,24,06,23,996.85
2021,08,24,06,24,996.85
2021,08,24,06,25,996.85
2021,08,24,06,26,996.85
2021,08,24,06,27,996.85
2021,08,24,06,28,999.19
2021,08,24,06,29,1000.27
2021,08,24,06,30,1000.27
2021,08,24,06,31,1000.84
2021,08,24,06,32,1001.15
2021,08,24,06,33,1001.15
2021,08,24,06,34,1001.15
2021,08,24,06,35,1001.33
2021,08,24,06,36,1001.42
2021,08,24,06,37,1001.42
2021,08,24,06,38,1001.42
2021,08,24,06,39,998.80
2021,08,24,06,40,997.39
2021,08,24,06,41,998.43
2021,08,24,06,42,998.99
2021,08,24,06,43,997.66
2021,08,24,06,44,996.95
2021,08,24,06,45,996.95
2021,08,24,06,46,996.95
2021,08,24,06,47,996.95
2021,08,24,06,48,996.95
2021,08,24,06,49,996.95
2021,08,24,06,50,996.95
2021,08,24,06,51,996.95
2021,08,24,06,52,996.95
2021,08,24,06,53,996.95
2021,08,24,06,54,996.95
2021,08,24,06,55,1005.29
2021,08,24,06,56,1009.14
2021,08,24,06,57,1009.14
2021,08,24,06,58,1009.14
2021,08,24,06,59,1009.14
2021,08,24,07,00,1008.09
2021,08,24,07,01,1007.52
2021,08,24,07,02,1007.52
2021,08,24,07,03,1007.52
2021,08,24,07,04,1009.74
2021,08,24,07,05,1010.94
2021,08,24,07,06,1010.94
2021,08,24,07,07,1009.88
2021,08,24,07,08,1009.31
2021,08,24,07,09,1009.31
2021,08,24,07,10,1009.31
2021,08,24,07,11,1009.31
2021,08,24,07,12,1009.31
2021,08,24,07,13,1009.31
2021,08,24,07,14,1009.31
2021,08,24,07,15,1009.31
2021,08,24,07,16,1002.96
2021,08,24,07,17,1000.03
2021,08,24,07,18,1000.03
2021,08,24,07,19,1000.03
2021,08,24,07,20,1000.03
2021,08,24,07,21,1000.03
2021,08,24,07,22,1000.03
2021,08,24,07,23,1000.03
2021,08,24,07,24,1000.03
2021,08,24,07,25,1000.03
2021,08,24,07,26,1000.03
2021,08,24,07,27,1000.03
2021,08,24,07,28,1000.03
2021,08,24,07,29,1000.03
2021,08,24,07,30,1000.03
2021,08,24,07,31,1000.03
2021,08,24,07,32,1000.03
2021,08,24,07,33,1000.03
2021,08,24,07,34,1000.63
2021,08,24,07,35,1000.95
2021,08,24,07,36,1000.95
2021,08,24,07,37,1002.34
2021,08,24,07,38,1003.15
2021,08,24,07,39,1003.15
2021,08,24,07,40,1003.15
2021,08,24,07,41,1003.15
2021,08,24,07,42,1001.29
2021,08,24,07,43,1000.20
2021,08,24,07,44,1000.20
2021,08,24,07,45,1000.20
2021,08,24,07,46,1000.20
2021,08,24,07,47,1000.20
2021,08,24,07,48,1000.20
2021,08,24,07,49,1000.20
2021,08,24,07,50,1000.20
2021,08,24,07,51,1000.20
2021,08,24,07,52,1000.20
2021,08,24,07,53,1000.20
2021,08,24,07,54,1000.20
2021,08,24,07,55,996.97
2021,08,24,07,56,995.23
2021,08,24,07,57,995.23
2021,08,24,07,58,995.23
2021,08,24,07,59,995.23
2021,08,24,08,00,995.23
2021,08,24,08,01,995.23
2021,08,24,08,02,995.23
2021,08,24,08,03,995.23
2021,08,24,08,04,995.23
2021,08,24,08,05,995.23
2021,08,24,08,06,995.23
2021,08,24,08,07,995.23
2021,08,24,08,08,995.23
2021,08,24,08,09,999.96
2021,08,24,08,10,1002.76
2021,08,24,08,11,1002.91
2021,08,24,08,12,1002.91
2021,08,24,08,13,1002.91
2021,08,24,08,14,1002.91
2021,08,24,08,15,1002.91
2021,08,24,08,16,1002.91
2021,08,24,08,17,1002.91
2021,08,24,08,18,1002.91
2021,08,24,08,19,1002.91
2021,08,24,08,20,1002.91
2021,08,24,08,21,1002.91
2021,08,24,08,22,1002.91
2021,08,24,08,23,1002.91
2021,08,24,08,24,1002.91
2021,08,24,08,25,1002.91
2021,08,24,08,26,998.67
2021,08,24,08,27,996.38
2021,08,24,08,28,996.38
2021,08,24,08,29,996.38
2021,08,24,08,30,996.38
2021,08,24,08,31,996.38
2021,08,24,08,32,996.38
2021,08,24,08,33,996.38
2021,08,24,08,34,996.38
2021,08,24,08,35,996.38
2021,08,24,08,36,996.38
2021,08,24,08,37,996.22
2021,08,24,08,38,996.35
2021,08,24,08,39,996.48
2021,08,24,08,40,996.48
2021,08,24,08,41,996.48
2021,08,24,08,42,994.23
2021,08,24,08,43,992.92
2021,08,24,08,44,992.92
2021,08,24,08,45,992.92
2021,08,24,08,46,992.92
2021,08,24,08,47,992.92
2021,08,24,08,48,992.92
2021,08,24,08,49,992.92
2021,08,24,08,50,987.75
2021,08,24,08,51,984.97
2021,08,24,08,52,984.97
2021,08,24,08,53,983.89
2021,08,24,08,54,983.17
2021,08,24,08,55,983.17
2021,08,24,08,56,983.17
2021,08,24,08,57,983.17
2021,08,24,08,58,983.17
2021,08,24,08,59,983.17
2021,08,24,09,00,983.17
2021,08,24,09,01,989.49
2021,08,24,09,02,992.89
2021,08,24,09,03,992.89
2021,08,24,09,04,992.89
2021,08,24,09,05,992.89
2021,08,24,09,06,992.89
2021,08,24,09,07,992.89
2021,08,24,09,08,984.51
2021,08,24,09,09,979.99
2021,08,24,09,10,979.99
2021,08,24,09,11,979.99
2021,08,24,09,12,979.99
2021,08,24,09,13,979.99
2021,08,24,09,14,979.99
2021,08,24,09,15,979.99
2021,08,24,09,16,979.99
2021,08,24,09,17,979.99
2021,08,24,09,18,979.99
2021,08,24,09,19,979.99
2021,08,24,09,20,979.99
2021,08,24,09,21,979.99
2021,08,24,09,22,979.99
2021,08,24,09,23,979.99
2021,08,24,09,24,979.99
2021,08,24,09,25,974.59
2021,08,24,09,26,971.69
2021,08,24,09,27,971.69
2021,08,24,09,28,971.69
2021,08,24,09,29,971.69
2021,08,24,09,30,971.69
2021,08,24,09,31,971.69
2021,08,24,09,32,971.69
2021,08,24,09,33,971.69
2021,08,24,09,34,971.69
2021,08,24,09,35,971.69
2021,08,24,09,36,971.69
2021,08,24,09,37,971.69
2021,08,24,09,38,971.69
2021,08,24,09,39,971.69
2021,08,24,09,40,971.69
2021,08,24,09,41,971.69
2021,08,24,09,42,971.69
2021,08,24,09,43,971.69
2021,08,24,09,44,971.69
2021,08,24,09,45,971.69
2021,08,24,09,46,958.19
2021,08,24,09,47,950.14
2021,08,24,09,48,950.02
2021,08,24,09,49,950.02
2021,08,24,09,50,950.02
2021,08,24,09,51,950.02
2021,08,24,09,52,950.02
2021,08,24,09,53,950.02
2021,08,24,09,54,950.02
2021,08,24,09,55,950.02
2021,08,24,09,56,950.02
2021,08,24,09,57,950.02
2021,08,24,09,58,950.02
2021,08,24,09,59,950.02
2021,08,24,10,00,950.02
2021,08,24,10,01,950.02
2021,08,24,10,02,923.34
2021,08,24,10,03,908.97
2021,08,24,10,04,908.97
2021,08,24,10,05,908.97
2021,08,24,10,06,908.97
2021,08,24,10,07,908.97
2021,08,24,10,08,908.97
2021,08,24,10,09,908.97
2021,08,24,10,10,908.97
2021,08,24,10,11,908.97
2021,08,24,10,12,908.97
2021,08,24,10,13,908.97
2021,08,24,10,14,908.97
2021,08,24,10,15,908.97
2021,08,24,10,16,908.97
2021,08,24,10,17,908.97
2021,08,24,10,18,908.97
2021,08,24,10,19,908.97
2021,08,24,10,20,908.97
2021,08,24,10,21,908.97
2021,08,24,10,22,908.97
2021,08,24,10,23,908.97
2021,08,24,10,24,908.97
2021,08,24,10,25,908.97
2021,08,24,10,26,908.97
2021,08,24,10,27,908.97
2021,08,24,10,28,908.97
2021,08,24,10,29,908.97
2021,08,24,10,30,908.97
2021,08,24,10,31,908.97
2021,08,24,10,32,908.97
2021,08,24,10,33,908.97
2021,08,24,10,34,908.97
2021,08,24,10,35,908.97
2021,08,24,10,36,908.97
2021,08,24,13,25,1059.67
2021,08,24,13,26,1059.67
2021,08,24,13,27,1059.67
2021,08,24,14,29,1011.79
2021,08,24,14,30,1011.79
2021,08,24,14,31,1011.79
2021,08,24,14,32,1011.79
2021,08,24,14,33,1011.79
2021,08,24,14,34,1011.79
2021,08,24,14,35,1011.79
2021,08,24,14,36,1011.79
2021,08,24,14,37,1011.79
2021,08,24,14,38,1011.79
2021,08,24,14,39,1011.79
2021,08,24,14,40,1011.79
2021,08,24,14,41,1011.79
2021,08,24,14,42,1011.79
2021,08,24,14,43,1011.79
2021,08,24,14,44,1011.79
2021,08,24,14,45,1011.79
2021,08,24,14,46,1011.79
2021,08,24,14,47,1011.79
2021,08,24,14,48,1011.79
2021,08,24,14,49,1011.79
2021,08,24,14,50,1011.79
2021,08,24,14,51,1011.79
2021,08,24,14,52,1011.79
2021,08,24,14,53,1011.79
2021,08,24,14,54,1011.79
2021,08,24,14,55,1011.79
2021,08,24,14,56,1011.79
2021,08,24,14,57,1011.79
2021,08,24,14,58,1011.79
2021,08,24,14,59,1011.79
2021,08,24,15,00,1011.79
2021,08,24,15,01,1011.79
2021,08,24,15,02,1011.79
2021,08,24,15,03,1011.79
2021,08,24,15,04,1011.79
2021,08,24,15,05,1011.79
2021,08,24,15,06,1011.79
2021,08,24,15,07,1011.79
2021,08,24,15,08,1011.79
2021,08,24,15,09,1011.79
2021,08,24,15,10,1011.79
2021,08,24,15,11,1011.79
2021,08,24,15,12,1011.79
2021,08,24,15,13,1011.79
2021,08,24,15,14,1011.79
2021,08,24,15,15,1011.79
2021,08,24,15,16,1011.79
2021,08,24,15,17,1011.79
2021,08,24,15,18,1011.79
2021,08,24,15,19,1011.79
2021,08,24,15,20,1011.79
2021,08,24,15,21,1011.79
2021,08,24,15,22,1011.79
2021,08,24,15,23,1011.79
2021,08,24,15,24,1011.79
2021,08,24,15,25,1011.79
2021,08,24,15,26,1011.79
2021,08,24,15,27,1011.79
2021,08,24,15,28,1011.79
2021,08,24,15,29,1011.79
2021,08,24,15,30,1011.79
2021,08,24,15,31,1011.79
2021,08,24,15,32,1011.79
2021,08,24,15,33,1011.79
2021,08,24,15,34,1024.25
2021,08,24,15,35,1034.44
2021,08,24,15,36,1034.44
2021,08,24,15,37,1034.44
2021,08,24,15,38,1034.44
2021,08,24,15,39,1034.44
2021,08,24,15,40,1034.44
2021,08,24,15,41,1034.44
2021,08,24,15,42,1034.44
2021,08,24,15,43,1034.44
2021,08,24,15,44,1034.44
2021,08,24,15,45,1034.44
2021,08,24,15,46,1034.44
2021,08,24,15,47,1034.44
2021,08,24,15,48,1034.44
2021,08,24,15,49,1034.44
2021,08,24,15,50,1034.44
2021,08,24,15,51,1034.44
2021,08,24,15,52,1034.44
2021,08,24,15,53,1034.44
2021,08,24,15,54,1034.44
2021,08,24,15,55,1034.44
2021,08,24,15,56,1034.44
2021,08,24,15,57,1034.44
2021,08,24,22,38,905.86
2021,08,24,22,39,905.86
2021,08,24,22,40,905.86
2021,08,24,22,41,905.86
2021,08,24,22,42,905.86
2021,08,24,22,43,905.86
2021,08,24,22,44,905.86
2021,08,24,22,45,905.86
2021,08,24,22,46,905.86
2021,08,24,22,47,905.86
2021,08,24,22,48,905.86
2021,08,24,22,49,905.86
2021,08,24,22,50,905.86
2021,08,24,22,51,905.86
2021,08,24,22,52,905.86
2021,08,24,22,53,905.86
2021,08,24,22,54,905.86
2021,08,24,22,55,905.86
2021,08,24,22,56,905.86
2021,08,24,22,57,905.86
2021,08,24,22,58,905.86
2021,08,24,22,59,905.86
2021,08,24,23,00,905.86
2021,08,24,23,01,905.86
2021,08,24,23,02,905.86
2021,08,24,23,03,905.86
2021,08,24,23,04,905.86
2021,08,24,23,05,905.86
2021,08,24,23,06,905.86
2021,08,24,23,07,905.86
2021,08,24,23,08,905.86
2021,08,24,23,09,905.86
2021,08,24,23,10,905.86
2021,08,24,23,11,905.86
2021,08,24,23,12,905.86
2021,08,24,23,13,905.86
2021,08,24,23,14,905.86
2021,08,24,23,15,905.86
2021,08,24,23,16,905.86
2021,08,24,23,17,905.86
2021,08,24,23,18,905.86
2021,08,24,23,19,905.86
2021,08,24,23,20,905.86
2021,08,24,23,21,905.86
2021,08,24,23,22,905.86
2021,08,24,23,23,905.86
2021,08,24,23,24,905.86
2021,08,24,23,25,905.86
2021,08,24,23,26,905.86
2021,08,24,23,27,905.86
2021,08,24,23,28,905.86
2021,08,24,23,29,905.86
2021,08,24,23,30,905.86
2021,08,24,23,31,905.86
2021,08,24,23,32,905.86
2021,08,24,23,33,905.86
2021,08,24,23,34,905.86
2021,08,24,23,35,905.86
2021,08,24,23,36,905.86
2021,08,24,23,37,903.30
2021,08,24,23,38,900.75
2021,08,24,23,39,900.75
2021,08,24,23,40,900.75
2021,08,24,23,41,900.75
2021,08,24,23,42,900.75
2021,08,24,23,43,900.75
2021,08,24,23,44,900.75
2021,08,24,23,45,900.75
2021,08,24,23,46,900.75
2021,08,24,23,47,900.75
2021,08,24,23,48,900.75
2021,08,24,23,49,900.75
2021,08,24,23,50,900.75
2021,08,24,23,51,900.75
2021,08,24,23,52,900.75
2021,08,24,23,53,900.75
2021,08,24,23,54,903.78
2021,08,24,23,55,906.81
2021,08,24,23,56,906.81
2021,08,24,23,57,906.81
2021,08,24,23,58,906.81
2021,08,24,23,59,906.81
